Starlink 3826

operational
NORAD ID: 52347 Int'l Des: 2022-045 Owner: SPXS Country: US Constellation: starlink
LEOCIRCULAR

Starlink 3826について

説明を読み込み中...

リアルタイム位置

3D地球を読み込み中...

次回通過

高度履歴

Altitude vs Time

uPlot chart will show altitude changes over time

軌道要素

1 52347U 22045S 25298.12589913 .00000340 00000-0 39451-4 0 9991
2 52347 53.2166 87.6994 0001273 89.1655 270.9483 15.08838451195311
Epoch: Oct 25, 2025 • Age: 22 hours

現在のステータス

高度 549.3 km
速度 7.59 km/s
衛星直下点 -29.80°S, 115.55°W
打ち上げ日 Apr 29, 2022
運用期間 3.4 years
タイプ internet

技術仕様

分類 Payload
質量 297.00 kg
乾燥質量 275.00 kg
総質量 297.00 kg
長さ 0.20 m
直径 2.80 m
スパン 9.00 m
形状 Box + pan
製造者 SPXS
バスタイプ Starlink
フェーズステータス In Orbit
所有者/国 SPXS/US

大規模コンステレーション

Loading constellations...